Change the Weather History Date:

Monday, March 10, 2014

  Actual Average (EGGP) Record (EGGP)
Temperature  
Mean Temperature 44 °F -  
Max Temperature 51 °F 50 °F 57 °F (2012)
Min Temperature 33 °F 39 °F 30 °F (2013)
Degree Days  
Heating Degree Days 22    
Moisture  
Dew Point 40 °F    
Average Humidity 78    
Maximum Humidity 95    
Minimum Humidity 55    
Precipitation  
Precipitation 0.00 in - - ()
Sea Level Pressure  
Sea Level Pressure 30.46 in    
Wind  
Wind Speed 8 mph ()    
Max Wind Speed 15 mph    
Max Gust Speed -    
Visibility 9.4 miles    
Events      
Averages and records for this station are not official NWS values.
T = Trace of Precipitation, MM = Missing Value Source: Averaged Metar Reports

Daily Weather History Graph

Daily Weather History Graph

Search for Another Location

Airport or City:

Trip Planner

Search our weather history database for the weather conditions in past years. The results will help you decide how hot, cold, wet, or windy it might be!

Date:

Astronomy

Mar. 10, 2014 Rise Set
Actual Time 6:38 AM GMT 6:06 PM GMT
Civil Twilight 6:04 AM GMT 6:41 PM GMT
Nautical Twilight 5:24 AM GMT 7:21 PM GMT
Astronomical Twilight 4:42 AM GMT 8:02 PM GMT
Moon 12:03 PM GMT (3/10) 3:14 AM GMT (3/10)
Length of Visible Light 12h 37m
Length of Day
11h 28m
Waxing Gibbous, 68% of the Moon is Illuminated
Mar 10
Waxing Gibbous
Mar 16
Full
Mar 24
Last Quarter
Mar 30
New
Apr 7
First Quarter

Hourly Weather History & Observations

Time (GMT) Temp. Windchill Dew Point Humidity Pressure Visibility Wind Dir Wind Speed Gust Speed Precip Events Conditions
12:00 AM 45 °F - 44 °F 93% 30.19 in 3 mi SSE 3.5 mph - -   Mist
1:00 AM 49 °F - 47 °F 88% 30.22 in 7 mi WNW 5.8 mph - -   Light Haze
2:00 AM 46 °F - 44 °F 91% 30.25 in 4 mi NW 15.0 mph - -   Light Haze
3:00 AM 45 °F - 43 °F 90% 30.27 in 16 mi NW 11.5 mph - -   Scattered Clouds
4:00 AM 44 °F - 41 °F 86% 30.30 in 22 mi WNW 9.2 mph - -   Partly Cloudy
5:00 AM 44 °F - 39 °F 78% 30.33 in 25 mi NW 8.1 mph - -   Scattered Clouds
6:00 AM 44 °F - 40 °F 79% 30.36 in 22 mi NW 9.2 mph - -  
6:20 AM 44.6 °F 39.2 °F 39.2 °F 81% 30.36 in 6.2 mi NNW 10.4 mph - N/A   Partly Cloudy
6:50 AM 42.8 °F 37.0 °F 39.2 °F 87% 30.39 in 6.2 mi NNW 10.4 mph - N/A   Partly Cloudy
7:00 AM 43 °F - 39 °F 82% 30.39 in 25 mi NNW 9.2 mph - -  
7:20 AM 44.6 °F 39.7 °F 41.0 °F 87% 30.39 in 6.2 mi NNW 9.2 mph - N/A   Partly Cloudy
7:50 AM 42.8 °F 37.5 °F 39.2 °F 87% 30.42 in 6.2 mi NNW 9.2 mph - N/A   Partly Cloudy
8:00 AM 44 °F - 40 °F 83% 30.43 in 16 mi NNW 9.2 mph - -  
8:20 AM 44.6 °F 39.2 °F 41.0 °F 87% 30.42 in 6.2 mi NW 10.4 mph - N/A   Partly Cloudy
8:50 AM 46.4 °F 41.5 °F 41.0 °F 81% 30.45 in 6.2 mi NNW 10.4 mph - N/A   Partly Cloudy
9:00 AM 46 °F - 42 °F 79% 30.45 in 16 mi NW 9.2 mph - -   Scattered Clouds
9:20 AM 48.2 °F - 41.0 °F 76% 30.45 in 6.2 mi NW 9.2 mph - N/A   Partly Cloudy
9:50 AM 48.2 °F - 42.8 °F 82% 30.45 in 6.2 mi NW 6.9 mph - N/A   Partly Cloudy
10:00 AM 48 °F - 42 °F 72% 30.45 in 22 mi WNW 6.9 mph - -   Partly Cloudy
10:20 AM 48.2 °F - 42.8 °F 82% 30.45 in 6.2 mi NW 9.2 mph - N/A   Partly Cloudy
10:50 AM 50.0 °F - 42.8 °F 76% 30.45 in 6.2 mi NW 9.2 mph - N/A   Partly Cloudy
11:00 AM 49 °F - 42 °F 68% 30.47 in 19 mi NW 8.1 mph - -   Scattered Clouds
11:20 AM 50.0 °F - 42.8 °F 76% 30.45 in 6.2 mi NW 11.5 mph - N/A   Partly Cloudy
11:50 AM 50.0 °F - 42.8 °F 76% 30.45 in 6.2 mi NW 11.5 mph - N/A   Partly Cloudy
12:00 PM 50 °F - 41 °F 61% 30.47 in 28 mi NW 9.2 mph - -  
12:20 PM 51.8 °F - 41.0 °F 67% 30.48 in 6.2 mi NW 10.4 mph - N/A   Partly Cloudy
12:50 PM 51.8 °F - 42.8 °F 71% 30.48 in 6.2 mi NW 10.4 mph - N/A   Partly Cloudy
1:00 PM 50 °F - 40 °F 59% 30.48 in 25 mi NW 10.4 mph - -  
1:20 PM 50.0 °F - 41.0 °F 71% 30.48 in 6.2 mi NW 11.5 mph - N/A   Partly Cloudy
1:50 PM 51.8 °F - 41.0 °F 67% 30.45 in 6.2 mi NW 10.4 mph - N/A   Partly Cloudy
2:00 PM 51 °F - 40 °F 55% 30.47 in 31 mi NW 9.2 mph - -  
2:20 PM 51.8 °F - 41.0 °F 67% 30.45 in 6.2 mi NW 12.7 mph - N/A   Partly Cloudy
2:50 PM 51.8 °F - 41.0 °F 67% 30.48 in 6.2 mi NW 13.8 mph - N/A   Partly Cloudy
3:00 PM 50 °F - 39 °F 57% 30.48 in 19 mi NW 11.5 mph - -  
3:20 PM 50.0 °F - 39.2 °F 66% 30.48 in 6.2 mi NW 12.7 mph - N/A   Partly Cloudy
3:50 PM 50.0 °F - 39.2 °F 66% 30.48 in - NW 10.4 mph - N/A   Clear
4:00 PM 49 °F - 38 °F 57% 30.48 in 16 mi NW 10.4 mph - -  
4:20 PM 50.0 °F - 39.2 °F 66% 30.48 in - NW 12.7 mph - N/A   Clear
4:50 PM 48.2 °F - 39.2 °F 71% 30.48 in - NW 12.7 mph - N/A   Clear
5:00 PM 48 °F - 38 °F 58% 30.50 in 19 mi NW 9.2 mph - -  
5:20 PM 48.2 °F - 39.2 °F 71% 30.51 in - NW 11.5 mph - N/A   Clear
5:50 PM 46.4 °F 41.5 °F 41.0 °F 81% 30.51 in - NW 10.4 mph - N/A   Clear
6:00 PM 46 °F - 40 °F 72% 30.52 in 19 mi NW 8.1 mph - -  
6:20 PM 44.6 °F 39.7 °F 39.2 °F 81% 30.51 in - NW 9.2 mph - N/A   Clear
6:50 PM 42.8 °F 38.0 °F 39.2 °F 87% 30.54 in - NW 8.1 mph - N/A   Clear
7:00 PM 44 °F - 40 °F 79% 30.54 in 13 mi NW 5.8 mph - -  
7:20 PM 42.8 °F 41.1 °F 39.2 °F 87% 30.54 in - Variable 3.5 mph - N/A   Clear
7:50 PM 42.8 °F - 39.2 °F 87% 30.54 in - Variable 2.3 mph - N/A   Clear
8:00 PM 42 °F - 39 °F 84% 30.56 in 14 mi NW 2.3 mph - -  
8:20 PM 41.0 °F - 37.4 °F 87% 30.57 in - Calm Calm - N/A   Clear
8:50 PM 39.2 °F - 35.6 °F 87% 30.57 in - Calm Calm - N/A   Clear
9:00 PM 37 °F - 35 °F 90% 30.57 in 11 mi NNE 1.2 mph - -  
9:20 PM 39.2 °F - 37.4 °F 93% 30.57 in - Variable 2.3 mph - N/A   Clear
9:50 PM 37.4 °F - 35.6 °F 93% 30.57 in - Calm Calm - N/A   Clear
10:00 PM 36 °F - 34 °F 91% 30.58 in 11 mi South 1.2 mph - -  
11:00 PM 33 °F - 32 °F 95% 30.59 in 7 mi South 3.5 mph - -